Location: Kaiser
(34.0939°N, 117.4889°W)
Time: 03:31:28
(UTC+00:00)

Meteor 2-10 Rocket - Pass Details

Date: 29 October 2020
Orbit: 733 x 885 km, 81.2° (Epoch: 26 November)

Event Time Altitude Azimuth Distance (km) Brightness Sun altitude
Rises 13:12:03 0° 353° (N) 3,171 6.5 -12.0°
Reaches altitude 10° 13:14:22 10° 355° (N) 2,252 5.8 -11.6°
Maximum altitude 13:19:24 77° 81° (E) 775 3.7 -10.5°
Drops below altitude 10° 13:24:34 10° 168° (SSE) 2,303 6.3 -9.5°
Sets 13:26:57 0° 170° (S) 3,248 7.0 -9.0°
